Location: Sungai Apap
(2.6167°N, 113.3833°E)
Time: 16:14:58
(UTC+00:00)

SL-24 R/B - RUBIN 2 - Pass Details

Date: 25 May 2024
Orbit: 568 x 1023 km, 64.6° (Epoch: 12 June)

Event Time Altitude Azimuth Distance (km) Brightness Sun altitude
Rises 21:40:55 0° 342° (NNW) 3,543 7.5 -9.0°
Reaches altitude 10° 21:43:35 10° 344° (NNW) 2,538 6.8 -8.3°
Maximum altitude 21:49:26 71° 68° (ENE) 849 4.5 -7.0°
Drops below altitude 10° 21:54:33 10° 151° (SSE) 2,233 6.5 -5.8°
Sets 21:56:47 0° 153° (SSE) 3,089 7.2 -5.3°
